TimeEDT,TemperatureF,Dew PointF,Humidity,Sea Level PressureIn,VisibilityMPH,Wind Direction,Wind SpeedMPH,Gust SpeedMPH,PrecipitationIn,Events,Conditions,WindDirDegrees,DateUTC
12:53 AM,73.9,71.1,91,30.19,8.0,WSW,10.4,17.3,N/A,,Clear,240,2013-07-05 04:53:00
1:53 AM,73.9,71.1,91,30.19,9.0,WSW,5.8,-,N/A,,Clear,240,2013-07-05 05:53:00
2:53 AM,73.0,71.1,93,30.19,9.0,WSW,4.6,-,N/A,,Clear,250,2013-07-05 06:53:00
3:53 AM,73.9,71.1,91,30.19,10.0,WSW,6.9,-,N/A,,Clear,240,2013-07-05 07:53:00
4:53 AM,73.9,71.1,91,30.19,10.0,SW,8.1,-,N/A,,Clear,230,2013-07-05 08:53:00
5:53 AM,73.9,71.1,91,30.20,8.0,Variable,6.9,-,N/A,,Clear,0,2013-07-05 09:53:00
6:53 AM,75.9,72.0,87,30.20,9.0,WSW,5.8,-,N/A,,Clear,250,2013-07-05 10:53:00
7:53 AM,77.0,72.0,84,30.21,9.0,SW,6.9,-,N/A,,Clear,230,2013-07-05 11:53:00
8:53 AM,78.1,72.0,81,30.21,10.0,SW,8.1,-,N/A,,Clear,220,2013-07-05 12:53:00
9:53 AM,79.0,73.0,82,30.20,10.0,SW,8.1,-,N/A,,Clear,230,2013-07-05 13:53:00
10:53 AM,81.0,73.0,77,30.19,10.0,SW,10.4,18.4,N/A,,Clear,230,2013-07-05 14:53:00
11:53 AM,82.9,73.0,72,30.19,10.0,SW,13.8,-,N/A,,Clear,230,2013-07-05 15:53:00
12:53 PM,82.9,73.0,72,30.17,10.0,SW,11.5,-,N/A,,Clear,230,2013-07-05 16:53:00
1:53 PM,84.0,72.0,67,30.17,10.0,SW,12.7,-,N/A,,Clear,230,2013-07-05 17:53:00
2:53 PM,84.9,72.0,65,30.16,10.0,SW,8.1,-,N/A,,Clear,230,2013-07-05 18:53:00
3:53 PM,82.0,72.0,71,30.14,10.0,South,11.5,-,N/A,,Clear,190,2013-07-05 19:53:00
4:53 PM,82.0,72.0,71,30.13,10.0,SSW,9.2,-,N/A,,Clear,210,2013-07-05 20:53:00
5:53 PM,81.0,72.0,74,30.12,10.0,SSW,8.1,-,N/A,,Clear,210,2013-07-05 21:53:00
6:53 PM,80.1,71.1,74,30.11,10.0,SW,8.1,-,N/A,,Clear,230,2013-07-05 22:53:00
7:53 PM,78.1,70.0,76,30.11,10.0,SW,6.9,-,N/A,,Clear,230,2013-07-05 23:53:00
8:53 PM,75.9,71.1,85,30.11,10.0,SW,4.6,-,N/A,,Clear,230,2013-07-06 00:53:00
9:53 PM,75.0,71.1,87,30.12,10.0,SW,9.2,-,N/A,,Clear,220,2013-07-06 01:53:00
10:53 PM,75.0,71.1,87,30.12,10.0,SW,6.9,-,N/A,,Clear,220,2013-07-06 02:53:00
11:53 PM,73.9,71.1,91,30.12,10.0,SW,3.5,-,N/A,,Clear,230,2013-07-06 03:53:00